1391349026042,0.000178233
1391349086042,0.000174619
1391349146042,0.000174519
1391349206042,0.000174500
1391349266042,0.000173074
1391349326042,0.000173612
1391349386042,0.000175160
1391349446042,0.000173069
1391349506042,0.000173153
1391349566042,0.000173222
1391349626055,0.000173911
1391349686055,0.000173235
1391349746055,0.000174753
1391349806055,0.000178681
1391349866055,0.000224879
1391349926055,0.000240439
1391349986055,0.000209521
1391350046055,0.000203528
1391350106055,0.000193862
1391350166055,0.000183873
1391350226055,0.000184020
1391350286055,0.000184361
1391350346055,0.000185245
1391350406055,0.000183843
1391350466055,0.000184079
1391350526055,0.000182195
1391350586055,0.000180227
1391350646055,0.000180950
1391350706055,0.000184433
1391350766055,0.000192393
1391350826055,0.000188622
1391350886055,0.000184325
1391350946055,0.000181112
1391351006055,0.000179010
1391351066055,0.000175716
1391351126055,0.000175705
1391351186055,0.000176154
1391351246055,0.000177968
1391351306055,0.000176317
1391351366055,0.000178798
1391351426055,0.000177057
1391351486055,0.000178861
1391351546055,0.000176824
1391351606055,0.000178341
1391351666055,0.000183339
1391351726055,0.000184599
1391351786055,0.000183610
1391351846055,0.000179391
1391351906055,0.000179800
1391351966055,0.000176482
1391352026055,0.000175512
1391352086055,0.000175566
1391352146055,0.000175893
1391352206055,0.000175259
1391352266055,0.000175449
1391352326055,0.000173991
1391352386055,0.000174606
1391352446055,0.000173648
1391352506055,0.000175441
1391352566055,0.000174833
1391352626055,0.000175000
1391352686055,0.000173133
1391352746055,0.000175497
1391352806055,0.000174639
1391352866055,0.000173814
1391352926055,0.000173778
1391352986055,0.000174140
1391353046055,0.000175235
1391353106055,0.000172718
1391353166055,0.000173276
1391353226069,0.000173343
1391353286069,0.000172486
1391353346069,0.000172786
1391353406069,0.000172134
1391353466069,0.000171906
1391353526069,0.000172957
1391353586069,0.000172510
1391353646069,0.000172675
1391353706069,0.000171754
1391353766069,0.000172046
1391353826069,0.000173923
1391353886069,0.000171709
1391353946069,0.000173346
1391354006069,0.000175301
1391354066069,0.000175214
1391354126069,0.000173573
1391354186069,0.000173661
1391354246069,0.000174508
1391354306069,0.000173770
1391354366069,0.000171294
1391354426069,0.000173147
1391354486069,0.000174135
1391354546069,0.000173881
1391354606069,0.000173948
1391354666069,0.000172971
1391354726069,0.000177777
1391354786069,0.000178542
1391354846069,0.000174943
1391354906069,0.000174367
1391354966069,0.000174763
1391355026069,0.000174998
1391355086069,0.000175621
1391355146069,0.000173728
1391355206069,0.000174415
1391355266069,0.000172731
1391355326069,0.000172939
1391355386069,0.000172865
1391355446069,0.000173121
1391355506069,0.000173917
1391355566069,0.000173855
1391355626069,0.000176313
1391355686069,0.000175699
1391355746069,0.000175311
1391355806069,0.000177056
1391355866069,0.000174460
1391355926069,0.000172807
1391355986069,0.000172130
1391356046069,0.000173321
1391356106069,0.000173968
1391356166069,0.000174595
1391356226069,0.000176436
1391356286069,0.000176080
1391356346069,0.000175285
1391356406069,0.000175725
1391356466069,0.000173015
1391356526069,0.000175064
1391356586069,0.000174205
1391356646069,0.000174011
1391356706069,0.000172960
1391356766069,0.000175028
1391356826082,0.000171567
1391356886082,0.000173465
1391356946082,0.000174043
1391357006082,0.000171336
1391357066082,0.000173892
1391357126082,0.000170783
1391357186082,0.000174165
1391357246082,0.000171452
1391357306082,0.000172015
1391357366082,0.000175717
1391357426082,0.000174493
1391357486082,0.000173742
1391357546082,0.000173367
1391357606082,0.000177815
1391357666082,0.000181065
1391357726082,0.000178118
1391357786082,0.000177847
1391357846082,0.000181061
1391357906082,0.000177590
1391357966082,0.000177791
1391358026082,0.000175336
1391358086082,0.000175330
1391358146082,0.000174634
1391358206082,0.000173157
1391358266082,0.000173930
1391358326082,0.000177935
1391358386082,0.000181030
1391358446082,0.000206631
1391358506082,0.000202629
1391358566082,0.000193376
1391358626082,0.000185270
1391358686082,0.000181277
1391358746082,0.000179962
1391358806082,0.000179053
1391358866082,0.000178095
1391358926082,0.000176696
1391358986082,0.000177688
1391359046082,0.000178712
1391359106082,0.000177205
1391359166082,0.000176174
1391359226082,0.000175507
1391359286082,0.000173775
1391359346082,0.000174750
1391359406082,0.000173179
1391359466082,0.000174763
1391359526082,0.000172642
1391359586082,0.000174506
1391359646082,0.000174710
1391359706082,0.000178169
1391359766082,0.000181884
1391359826082,0.000191090
1391359886082,0.000201782
1391359946082,0.000191111
1391360006082,0.000185170
1391360066082,0.000181195
